Regional Weather Roundup
Issued by NWS Boston, MA

Home | Current Version | Previous Version | Text Only | Print | Product List | Glossary On
Versions: 1 2 3 4 5 6 7 8 9 10 11 12 13 14 15 16 17 18 19 20 21 22 23 24 25 26 27 28 29 30 31 32 33 34 35 36 37 38 39 40 41 42 43 44 45 46 47 48 49 50
858
ASUS41 KBOX 040810
RWRBOX

REGIONAL WEATHER ROUNDUP
NATIONAL WEATHER SERVICE TAUNTON MA
300 AM EST SUN DEC 04 2016

NOTE:  "FAIR" INDICATES FEW OR NO CLOUDS BELOW 12,000 FEET WITH NO
SIGNIFICANT WEATHER AND/OR OBSTRUCTIONS TO VISIBILITY.

MAZALL-040900-
EASTERN MASSACHUSETTS

CITY           SKY/WX    TMP DP  RH WIND       PRES   REMARKS
BOSTON         PTCLDY    34  21  59 W12       30.12R WCI  25
BEVERLY        CLEAR     32  22  66 NW9       30.10R WCI  24
LAWRENCE       CLEAR     32  21  64 W5        30.12R WCI  27
BEDFORD        MOCLDY    32  17  54 W3        30.11R
BLUE HILL        N/A     29  20  69 NW14G22   30.07S WCI  18
NORWOOD        CLEAR     32  21  64 NW6       30.12R WCI  26
MARSHFIELD     CLEAR     36  21  55 NW9G16    30.10S WCI  29
PLYMOUTH       CLEAR     31  22  69 W8        30.11R WCI  23
TAUNTON        CLEAR     29  22  75 W5        30.12R WCI  24
NEW BEDFORD    CLEAR     31  23  72 W7        30.11S WCI  24
$$

MAZALL-040900-
CAPE COD AND THE ISLANDS

CITY           SKY/WX    TMP DP  RH WIND       PRES   REMARKS
FALMOUTH       CLEAR     32  21  64 MISG      30.09S
HYANNIS        MOCLDY    35  23  61 W10G17    30.06S WCI  27
CHATHAM        CLOUDY    39  27  62 NW6       30.07R
PROVINCETOWN   CLOUDY    38  26  62 NW20G29   30.08R WCI  28
NANTUCKET      CLOUDY    38  25  59 NW18      30.07S WCI  28
MARTHAS VNYRD  CLEAR     36  22  56 NW14      30.10R WCI  27
$$

MAZALL-040900-
CENTRAL AND WESTERN MASSACHUSETTS

CITY           SKY/WX    TMP DP  RH WIND       PRES   REMARKS
WORCESTER      CLEAR     28  18  66 NW10      30.10R WCI  19
FITCHBURG      CLOUDY    35  19  52 CALM      30.12R
ORANGE         CLOUDY    32  20  61 NW10      30.14R WCI  24
SPRINGFIELD    CLOUDY    35  19  52 NW13      30.14R WCI  26
WESTFIELD      MOCLDY    26  23  88 CALM      30.16R
NORTH ADAMS    CLOUDY    32  18  56 W8        30.16R WCI  25
PITTSFIELD     CLOUDY    30  18  60 W10       30.12R WCI  21
$$

RIZALL-040900-
RHODE ISLAND

CITY           SKY/WX    TMP DP  RH WIND       PRES   REMARKS
PROVIDENCE     MOCLDY    33  22  63 W7        30.14R WCI  27
NEWPORT        CLEAR     34  24  67 NW12      30.13R WCI  25
BLOCK ISLAND   PTCLDY    37  21  52 NW10G18   30.15R WCI  30
SMITHFIELD     PTCLDY    31  23  72 NW8       30.12R WCI  23
WESTERLY       CLEAR     35  18  49 CALM      30.16R
$$

CTZALL-040900-
CONNECTICUT

CITY           SKY/WX    TMP DP  RH WIND       PRES   REMARKS
BRADLEY INTL   MOCLDY    31  20  63 NW8       30.17R WCI  23
HARTFORD       CLOUDY    36  20  52 VRB7      30.18R WCI  30
BRIDGEPORT     PTCLDY    38  22  52 NW7       30.18S
DANBURY        CLOUDY    35  23  61 NW5       30.18S WCI  31
GROTON         CLEAR     37  21  52 NW9       30.16R WCI  30
NEW HAVEN      CLEAR     35  20  54 N5        30.18R WCI  31
CHESTER        FAIR      34  19  55 NW3       30.15S
MERIDEN        CLOUDY    37  19  48 NW5       30.18R
WILLIMANTIC    CLOUDY    36  21  54 W5        30.16R
OXFORD         CLEAR     34  18  51 NW12G17   30.16R WCI  25
$$

MEZ002-015-021-024-NHZ003-005-008-011-012-014-VTZ005-008-040900-
NORTHERN NEW ENGLAND

CITY           SKY/WX    TMP DP  RH WIND       PRES   REMARKS
PORTLAND ME    CLOUDY    34  19  54 N10       30.08R WCI  26
BANGOR ME      CLOUDY    29  23  78 NW5       30.03R WCI  24
CONCORD NH     CLOUDY    34  19  54 NW10      30.11R WCI  26
MANCHESTER NH  CLOUDY    34  18  52 VRB5      30.10R WCI  30
NASHUA NH      CLOUDY    34  20  56 NW14G21   30.12R WCI  25
PORTSMOUTH NH  PTCLDY    31  21  65 W8        30.08R WCI  24
JAFFREY NH     CLOUDY    32  18  56 VRB5      30.09R WCI  27
KEENE NH       CLOUDY    33  20  58 N9        30.13R WCI  25
BURLINGTON VT  CLOUDY    32  20  61 N14       30.17R WCI  22
MT. WASHINGTON SNOWSHWR   5   5 100 NW46        N/A  VSB 0   WCI -23
$$

NYZ052-076-040900-
EASTERN NEW YORK

CITY           SKY/WX    TMP DP  RH WIND       PRES   REMARKS
ALBANY         MOCLDY    34  18  52 NW10      30.20R WCI  26
NEW YORK CITY  CLOUDY    43  27  53 NW13      30.19S
$$

ANZALL-040900-
MARINE OBSERVATIONS

STATION/POSITION TIME  TEMP    WIND        PRES    VSBY  WAVE
                       AIR SEA DIR/SP/G                  HT/PER
                 (UTC) (F)     (DEG/KT/KT) (MB)    (MI)  (FT/S)
BOSTON BUOY      0750   37 51  320/ 21/ 27 1017.4R         3/ 4
BUZZARDS BAY     0700   37     310/ 21/ 24 1020.1R
NANTUCKET SOUND  NOT AVBL
MASS BAY-STELLWA 0704   38 50  320/ 16/ 21 1018.1R  1 7/8  4/ 6
ISLE OF SHOALS   0800   35     300/ 15/ 16 1018.4R
S OF BLOCK IS    0755      55                N/A           6/ 5
$$

......................KEY.........................
  SKY/WX - SKY CONDITION/PRESENT WEATHER
  TMP    - TEMPERATURE IN FAHRENHEIT
  DWPT   - DEWPOINT IN FAHRENHEIT
  RH     - RELATIVE HUMIDITY IN PERCENT
  WIND   - DIRECTION AND SPEED IN MPH
  PRES   - MEAN SEA LEVEL PRESSURE IN INCHES OF HG
  WCI    - WIND CHILL INDEX
  VSB    - VISIBILITY IN MILES
  HX     - HEAT INDEX
  TC     - TEMPERATURE IN CELSIUS
  VRB    - VARIABLE WIND DIRECTION
  N/A    - NOT AVAILABLE




USA.gov is the U.S. government's official web portal to all federal, state and local government web resources and services.